TimeMDT,TemperatureF,Dew PointF,Humidity,Sea Level PressureIn,VisibilityMPH,Wind Direction,Wind SpeedMPH,Gust SpeedMPH,PrecipitationIn,Events,Conditions,WindDirDegrees,DateUTC
12:15 AM,69.8,46.4,43,30.03,10.0,SSW,11.5,-,N/A,,Scattered Clouds,210,2013-07-04 06:15:00
12:35 AM,66.2,46.4,49,30.03,10.0,South,6.9,-,N/A,,Scattered Clouds,190,2013-07-04 06:35:00
12:55 AM,64.4,46.4,52,30.03,10.0,South,8.1,-,N/A,,Clear,190,2013-07-04 06:55:00
1:15 AM,64.4,44.6,49,30.03,10.0,South,6.9,-,N/A,,Clear,170,2013-07-04 07:15:00
1:34 AM,62.6,44.6,52,30.03,10.0,South,5.8,-,N/A,,Clear,180,2013-07-04 07:34:00
1:55 AM,62.6,44.6,52,30.03,10.0,South,8.1,-,N/A,,Clear,190,2013-07-04 07:55:00
2:14 AM,62.6,44.6,52,30.03,10.0,SSW,10.4,-,N/A,,Clear,200,2013-07-04 08:14:00
2:35 AM,64.4,44.6,49,30.02,10.0,SSW,10.4,-,N/A,,Clear,210,2013-07-04 08:35:00
2:55 AM,66.2,44.6,46,30.03,10.0,SSW,10.4,-,N/A,,Clear,210,2013-07-04 08:55:00
3:15 AM,64.4,44.6,49,30.03,10.0,SSW,10.4,-,N/A,,Clear,210,2013-07-04 09:15:00
3:34 AM,64.4,44.6,49,30.03,10.0,WSW,5.8,-,N/A,,Clear,240,2013-07-04 09:34:00
3:55 AM,64.4,44.6,49,30.03,10.0,WSW,6.9,-,N/A,,Clear,240,2013-07-04 09:55:00
4:15 AM,64.4,44.6,49,30.03,10.0,SW,8.1,-,N/A,,Clear,230,2013-07-04 10:15:00
4:35 AM,64.4,44.6,49,30.02,10.0,SW,8.1,-,N/A,,Clear,220,2013-07-04 10:35:00
4:55 AM,64.4,44.6,49,30.03,10.0,SW,6.9,-,N/A,,Clear,230,2013-07-04 10:55:00
5:16 AM,64.4,44.6,49,30.03,10.0,SW,8.1,-,N/A,,Clear,230,2013-07-04 11:16:00
5:36 AM,62.6,44.6,52,30.04,10.0,SW,6.9,-,N/A,,Clear,230,2013-07-04 11:36:00
5:55 AM,62.6,44.6,52,30.04,10.0,SW,6.9,-,N/A,,Clear,230,2013-07-04 11:55:00
6:16 AM,64.4,44.6,49,30.04,10.0,WSW,8.1,-,N/A,,Clear,250,2013-07-04 12:16:00
6:36 AM,64.4,44.6,49,30.05,10.0,WSW,8.1,-,N/A,,Clear,250,2013-07-04 12:36:00
6:49 AM,66.2,44.6,46,30.06,10.0,WSW,6.9,-,N/A,,Scattered Clouds,250,2013-07-04 12:49:00
7:48 AM,73.4,44.6,36,30.07,40.0,West,8.1,-,N/A,,Scattered Clouds,260,2013-07-04 13:48:00
8:47 AM,80.6,42.8,26,30.08,40.0,NW,5.8,-,N/A,,Scattered Clouds,310,2013-07-04 14:47:00
9:55 AM,84.2,41.0,22,30.07,40.0,NNW,9.2,16.1,N/A,,Partly Cloudy,330,2013-07-04 15:55:00
10:47 AM,86.0,32.0,14,30.06,40.0,North,8.1,17.3,N/A,,Partly Cloudy,10,2013-07-04 16:47:00
12:50 PM,87.8,33.8,15,30.03,40.0,WNW,6.9,-,N/A,,Partly Cloudy,300,2013-07-04 18:50:00
1:55 PM,91.4,35.6,14,30.02,40.0,NW,11.5,-,N/A,,Scattered Clouds,320,2013-07-04 19:55:00
3:55 PM,93.2,33.8,12,29.99,40.0,North,8.1,-,N/A,,Mostly Cloudy,360,2013-07-04 21:55:00
4:49 PM,91.4,33.8,13,29.98,40.0,North,5.8,-,N/A,,Scattered Clouds,10,2013-07-04 22:49:00
9:15 PM,77.0,42.8,29,30.01,10.0,WSW,4.6,-,N/A,,Clear,250,2013-07-05 03:15:00
9:36 PM,77.0,42.8,29,30.01,10.0,SW,4.6,-,N/A,,Clear,230,2013-07-05 03:36:00
9:55 PM,73.4,42.8,33,30.02,10.0,South,5.8,-,N/A,,Clear,190,2013-07-05 03:55:00
10:14 PM,71.6,41.0,33,30.03,10.0,NE,4.6,-,N/A,,Clear,40,2013-07-05 04:14:00
10:35 PM,73.4,42.8,33,30.01,10.0,Calm,Calm,-,N/A,,Clear,0,2013-07-05 04:35:00
10:55 PM,73.4,42.8,33,30.01,10.0,Calm,Calm,-,N/A,,Clear,0,2013-07-05 04:55:00
11:15 PM,73.4,42.8,33,30.01,10.0,Calm,Calm,-,N/A,,Clear,0,2013-07-05 05:15:00
11:35 PM,71.6,42.8,35,30.00,10.0,Calm,Calm,-,N/A,,Clear,0,2013-07-05 05:35:00
11:55 PM,69.8,42.8,38,29.99,10.0,Calm,Calm,-,N/A,,Clear,0,2013-07-05 05:55:00